Regional Weather Roundup
Issued by NWS

Home | Current Version | Previous Version | Graphics & Text | Print | Product List | Glossary On
Versions: 1 2 3 4 5 6 7 8 9 10 11 12 13 14 15 16 17 18 19 20 21 22 23 24 25 26 27 28 29 30 31 32 33 34 35 36 37 38 39 40 41 42 43 44 45 46 47 48 49 50
000
ASUS43 KOAX 292202
RWRNE

WEATHER ROUNDUP FOR NEBRASKA
NATIONAL WEATHER SERVICE OMAHA NE
400 PM CST THU JAN 29 2015

NOTES: SATELLITE DATA IS BEING USED TO AUGMENT CLOUD COVER ABOVE
       12000 FEET.
       "FAIR" INDICATES FEW OR NO CLOUDS BELOW 12,000 FEET WITH NO
       SIGNIFICANT WEATHER AND/OR OBSTRUCTIONS TO VISIBILITY.

  * THESE STATIONS DO NOT REPORT WEATHER SUCH AS RAIN...SNOW OR FOG.

NEZ001>004-019>022-054>056-292300-
NEBRASKA PANHANDLE

CITY           SKY/WX    TMP DP  RH WIND       PRES   REMARKS
SCOTTSBLUFF    SUNNY     49  18  29 N3        30.41F
ALLIANCE       SUNNY     45  13  27 CALM      30.41F
CHADRON        SUNNY     46  17  31 S3        30.41F
SIDNEY         SUNNY     47  11  23 VRB5      30.43F
$$

NEZ057>060-069>072-079>082-292300-
SOUTHWEST NEBRASKA

CITY           SKY/WX    TMP DP  RH WIND       PRES   REMARKS
NORTH PLATTE   SUNNY     46  17  31 NW7       30.44S
IMPERIAL       SUNNY     46  21  37 N13       30.46S
LEXINGTON      SUNNY     46  20  35 N10       30.45S
MCCOOK         SUNNY     48  21  34 NW10      30.46S
$$

NEZ005>010-023>029-035>040-094-292300-
NORTH CENTRAL NEBRASKA

CITY           SKY/WX    TMP DP  RH WIND       PRES   REMARKS
VALENTINE      SUNNY     45  18  34 NW10      30.44R
BROKEN BOW     SUNNY     46  20  35 N16       30.43S
ORD            SUNNY     45  20  36 N13       30.43R
$$

NEZ041-046>049-061>064-073>077-083>087-292300-
SOUTH CENTRAL NEBRASKA

CITY           SKY/WX    TMP DP  RH WIND       PRES   REMARKS
GRAND ISLAND   SUNNY     45  21  38 N14G23    30.45R
AURORA         SUNNY     46  23  41 NW16G22   30.44S
HASTINGS       SUNNY     46  20  35 N15       30.44R
KEARNEY *      SUNNY     45  19  36 N15G21    30.44S
YORK           SUNNY     45  25  45 N12G17    30.44R
$$

NEZ011>018-030>034-042>045-292300-
NORTHEAST NEBRASKA

CITY           SKY/WX    TMP DP  RH WIND       PRES   REMARKS
NORFOLK        SUNNY     40  24  53 N15       30.43R WCI  32
ALBION         SUNNY     42  23  45 N15G21    30.42S
BLAIR          CLOUDY    38  25  58 NW17      30.42R WCI  29
COLUMBUS *     SUNNY     41  21  45 N15       30.46R
FREMONT        PTSUNNY   40  26  56 N12G18    30.45R WCI  33
TEKAMAH        CLOUDY    39  25  57 NW18      30.45R WCI  30
$$

NEZ050>053-065>068-078-088>093-292300-
SOUTHEAST NEBRASKA

CITY           SKY/WX    TMP DP  RH WIND       PRES   REMARKS
LINCOLN        MOSUNNY   42  26  53 N15       30.46R
OMAHA EPPLEY   PTSUNNY   38  25  59 N16       30.44R WCI  29
FALLS CITY     CLOUDY    40  25  55 N18G24    30.44R WCI  31
$$

NEZ044-045-051>053-067-292300-
OMAHA AREA

CITY           SKY/WX    TMP DP  RH WIND       PRES   REMARKS
OMAHA EPPLEY   PTSUNNY   38  25  59 N16       30.44R WCI  29
BLAIR          CLOUDY    38  25  58 NW17      30.42R WCI  29
FREMONT        PTSUNNY   40  26  56 N12G18    30.45R WCI  33
OFFUTT AFB     CLOUDY    39  24  55 N10       30.43R WCI  32
$$



USA.gov is the U.S. government's official web portal to all federal, state and local government web resources and services.